Location: Bühlhof
(48.7849°N, 8.6361°E)
Time: 23:02:14
(UTC+00:00)

Cosmos 1515 Rocket - Pass Details

Date: 19 January 2026
Orbit: 599 x 623 km, 82.5° (Epoch: 7 February)

Event Time Altitude Azimuth Distance (km) Brightness Sun altitude
Rises 17:25:07 0° 202° (SSW) 2,888 7.6 -13.3°
Reaches altitude 10° 17:27:23 10° 207° (SSW) 1,988 6.8 -13.7°
Maximum altitude 17:31:41 50° 284° (WNW) 794 4.5 -14.3°
Drops below altitude 10° 17:36:01 10° 0° (N) 2,005 6.0 -15.0°
Sets 17:38:19 0° 6° (N) 2,916 6.8 -15.4°
